weather.gov     
National Weather Service

Regional Weather Roundup
NWS Homepage
This page is being discontinued on March 12, 2014.
The same data is available at this site. Please update your bookmarks.
Thank you, and we apologize for the inconvenience.
Please send an email to SR-SRH.Webmaster@noaa.gov with any concerns.


Current Version
Previous Version:    01  02  03  04  05  06  07  08  09  10  11  12  13  14  15  16  17  18  19  20  21  22  23  24  25  26  27  28  29  30  
   31  32  33  34  35  36  37  38  39  40  41  42  43  44  45  46  47  48  49  50  51  52  53  
[Printable]
267
ASUS44 KMEG 200910
RWRMEG
MEMPHIS CWA HOURLY WEATHER ROUNDUP
NATIONAL WEATHER SERVICE MEMPHIS TN
300 AM CST SAT DEC 20 2014

...WEST TENNESSEE...

CITY           SKY/WX    TMP DP  RH WIND       PRES   REMARKS
MEMPHIS INTL   MOCLDY    38  32  79 NE3       30.22F
NWS MEMPHIS      N/A     33 N/A N/A MISG        N/A
JACKSON        CLOUDY    34  31  88 CALM      30.24R
LEXINGTON      CLEAR     30  28  93 CALM      30.22R
SAVANNAH       MOCLDY    34  30  86 CALM      30.22R
DYERSBURG      CLOUDY    37  21  52 NE7       30.26S WCI  32
UNION CITY     CLOUDY    34  30  86 NE5       30.24S WCI  30
PARIS          CLOUDY    30  27  86 CALM      30.25R
HUNTINGDON     CLOUDY    33  27  79 CALM      30.25R


...EASTERN ARKANSAS...

CITY           SKY/WX    TMP DP  RH WIND       PRES   REMARKS
JONESBORO      CLOUDY    38  34  85 NE8       30.24F WCI  32
WEST MEMPHIS   CLOUDY    38  36  92 NE5       30.23S WCI  34
BATESVILLE     CLOUDY    37  32  81 CALM      30.25R
NEWPORT        CLOUDY    38  36  92 NE6       30.26S WCI  33
WALNUT RIDGE   CLOUDY    37  32  81 NE5       30.24S WCI  34
BLYTHEVILLE    CLOUDY    39  34  82 NE8       30.25S WCI  33
SEARCY         CLOUDY    39  35  86 N6        30.26S WCI  35
STUTTGART      CLOUDY    39  36  87 N7        30.24R WCI  34
PINE BLUFF     FLURRIES  38  35  89 N6        30.23S WCI  33
MONTICELLO     CLEAR     40  38  93 NE3       30.21S


...NORTH MISSISSIPPI...

CITY           SKY/WX    TMP DP  RH WIND       PRES   REMARKS
TUPELO         MOCLDY    37  34  89 NE7       30.21R WCI  32
OXFORD         CLEAR     32  32 100 CALM      30.23R FOG
OLIVE BRANCH   CLEAR     32  32 100 CALM      30.23S
TUNICA         CLEAR     34  32  93 N6        30.24S WCI  29
CLARKSDALE     CLEAR     36  36 100 CALM      30.23S
CORINTH        MOCLDY    37  32  81 N5        30.21S WCI  34
GRENADA        CLOUDY    39  36  87 CALM      30.23R
GREENWOOD      CLOUDY    41  38  89 N3        30.21S
COLUMBUS       CLOUDY    40  37  87 N6        30.21R
STARKVILLE     CLOUDY    41  37  87 CALM      30.20R
GOLDEN TRIANGL CLOUDY    41  37  87 N6        30.19S


...SOUTHEAST MISSOURI...

CITY           SKY/WX    TMP DP  RH WIND       PRES   REMARKS
WEST PLAINS    CLOUDY    33  31  92 CALM      30.23R FOG
POPLAR BLUFF   CLOUDY    36  32  85 NE5       30.24S WCI  32
CAPE GIRARDEAU CLOUDY    35  29  78 E3        30.26S


...NORTHWEST ALABAMA...

CITY           SKY/WX    TMP DP  RH WIND       PRES   REMARKS
MUSCLE SHOALS  CLOUDY    39  31  72 CALM      30.21S


...MIDDLE TENNESSEE...

CITY           SKY/WX    TMP DP  RH WIND       PRES   REMARKS
NASHVILLE      CLEAR     34  26  72 N5        30.23R WCI  30
CLARKSVILLE    MOCLDY    31  27  85 N6        30.24S WCI  25


...WESTERN KENTUCKY...

CITY           SKY/WX    TMP DP  RH WIND       PRES   REMARKS
PADUCAH        CLOUDY    35  27  72 NE5       30.26R WCI  31
FORT CAMPBELL  CLOUDY    31  28  86 NE6       30.24S WCI  26


...CENTRAL ARKANSAS...

CITY           SKY/WX    TMP DP  RH WIND       PRES   REMARKS
LITTLE ROCK    CLOUDY    41  34  76 NE6       30.25R


SKY/WX REPORTED AS FAIR MEANS FEW OR NO CLOUDS BELOW
12 THOUSAND FEET.





U.S. Dept. of Commerce
NOAA National Weather Service
1325 East West Highway
Silver Spring, MD 20910
E-mail: w-nws.webmaster@noaa.gov
Page last modified: May 16, 2007
NATIONAL WEATHER SERVICE: for Safety, for Work, for Fun - FOR LIFE